Current Version              Previous Version:    01  02  03  04  05  06  07  08  09  10  11  12  13  14  15  16  17  18  19  20  21  22  23  24  25  26  27  28  29  30  
   31  32  33  34  35  36  37  38  39  40  41  42  43  44  45  46  47  48  49  50  51  52  53  54  55  56  57  58  59  60  

[Printable]
948
ASUS44 KLUB 010810
RWRTX
WEST TEXAS WEATHER ROUNDUP
NATIONAL WEATHER SERVICE LUBBOCK TX
300 AM CDT FRI AUG 01 2014

NOTE: "FAIR" INDICATES FEW OR NO CLOUDS BELOW 12,000 FEET WITH NO
SIGNIFICANT WEATHER AND/OR OBSTRUCTIONS TO VISIBILITY.

TXZ004-006>008-010-012-014-016-OKZ002-010900-
TEXAS PANHANDLE/OKLAHOMA PANHANDLE

CITY           SKY/WX    TMP DP  RH WIND       PRES   REMARKS
AMARILLO       PTCLDY    64  55  72 S7        30.20S
BORGER         CLEAR     67  56  67 CALM      30.18S
CANADIAN       PTCLDY    63  60  92 CALM      30.14S
DALHART        CLOUDY    67  59  75 E5        30.23F
DUMAS          MOCLDY    61  56  85 S3        30.21S
GUYMON         CLOUDY    62  58  86 SW6       30.16F
HEREFORD       MOCLDY    66  58  74 CALM      30.22F
PAMPA          CLEAR     58  54  87 S7        30.19S
PERRYTON       CLOUDY    62  58  88 SW6       30.16S
$$

TXZ026-029-035-045-048-010900-
SOUTHERN PANHANDLE/SOUTH PLAINS/ROLLING PLAINS

CITY           SKY/WX    TMP DP  RH WIND       PRES   REMARKS
CHILDRESS      MOCLDY    68  63  84 CALM      30.13F
SEMINOLE       MOCLDY    69  58  67 E9        30.17S
LUBBOCK        CLOUDY    65  58  78 SE6       30.17F
PLAINVIEW      CLOUDY    62  56  80 CALM      30.17F
SNYDER         PTCLDY    67  62  83 NE5       30.13F
$$

TXZ052-054-060>062-072-078-127-140-154-169-010900-
PERMIAN BASIN/CONCHO VALLEY/BIG COUNTRY/EDWARDS PLATEAU

CITY           SKY/WX    TMP DP  RH WIND       PRES   REMARKS
ABILENE        PTCLDY    69  63  81 N3        30.09F
BIG SPRING     MOCLDY    72  61  70 NE8       30.15F
BRADY          CLEAR     70  64  83 N5        30.07S
BROWNWOOD      CLEAR     68  63  83 N3        30.07S
JUNCTION       CLOUDY    75  64  68 NE8       30.06S
MIDLAND        CLOUDY    73  61  65 E15       30.13R
ODESSA         CLOUDY    73  60  63 E14       30.14S
SAN ANGELO     CLEAR     69  61  75 SE3       30.09S
SONORA         PTCLDY    73  63  68 NE8       30.12S
SWEETWATER     PTCLDY    66  64  91 NE3       30.16S
WINK           CLOUDY    77  59  53 E7        30.09S
$$

TXZ055-058-074-075-080-082-010900-
FAR WEST/SOUTHWEST MOUNTAINS/TRANS PECOS

CITY           SKY/WX    TMP DP  RH WIND       PRES   REMARKS
ALPINE         MOCLDY    68  59  73 CALM      30.24S
DRYDEN           N/A     83  62  49 NE13      30.03F
EL PASO        CLOUDY    72  63  73 S3        30.16R
FORT STOCKTON  CLOUDY    75  58  55 E10       30.12S
GUADALUPE PASS CLOUDY    66  57  72 NE23        N/A
MARFA          PTCLDY    66  57  72 NE7       30.22F
PECOS          CLOUDY    76  58  52 E7        30.09S
PRESIDIO       FAIR      81  61  50 N8        30.05S
$$

TXZ014-016-019-021>030-083-010900
TEXAS TECH WEST TEXAS MESONET/TEXAS PANHANDLE/NORTHERN SOUTH PLAINS

CITY           SKY/WX    TMP DP  RH WIND       PRES   REMARKS
ABERNATHY 5ENE   N/A     63  56  78 SE5       30.18F
AMARILLO 9NNE    N/A     60  56  89 S3        30.19F
AMARILLO 7SSE    N/A     59  55  86 SE1       30.21F
AMHERST 1NE      N/A     65  54  67 E3        30.20F
BOOTLEG 11WNW    N/A     61  54  77 SE6       30.25F
CANADIAN 6E      N/A     61  58  90 CALM      30.13S
CAPROCK CYN SP   N/A     64  60  87 S3        30.16F
CHILDRESS 2NNE   N/A     69  62  77 CALM      30.12F
CLARENDON 2WSW   N/A     60  58  91 S2        30.17S
CLAUDE 12SW      N/A     62  54  74 E2        30.19F
DIMMITT 2NE      N/A     61  56  82 SE3       30.21F
FLOYDADA 2NNE    N/A     60  57  89 S2        30.17F
FRIONA 2NE       N/A     63  54  73 SE3       30.23F
GOODLETT 3W      N/A     66  62  87 NW3       30.10F
HART 3N          N/A     62  55  76 SE3       30.21S
HEREFORD 2NW     N/A     62  55  78 S1        30.22F
MCLEAN 1E        N/A     62  58  87 S5        30.15F
MEMPHIS 1NE      N/A     64  62  92 NW3       30.14S
MULESHOE 2SSW    N/A     62  53  72 E3        30.21F
OLTON 6S         N/A     62  54  74 E3        30.19F
PALO DURO SP     N/A     63  54  71 CALM      30.21S
PAMPA 2E         N/A     60  56  87 S5        30.18S
PLAINVIEW 1S     N/A     64  57  77 S1        30.18F
SILVERTON 7ESE   N/A     62  58  88 SE3       30.18F
TULIA 2ENE       N/A     61  56  83 SE2       30.20S
TURKEY 2WSW      N/A     66  61  84 S3        30.14F
UMBARGER 3NNE    N/A     62  54  76 SW2       30.22S
$$

TXZ033>036-039>041-045>048-010900
TEXAS TECH WEST TEXAS MESONET/SOUTH PLAINS

CITY           SKY/WX    TMP DP  RH WIND       PRES   REMARKS
AIKEN 3WSW       N/A     61  58  91 SE3       30.19F
ANDREWS 2NE      N/A     70  58  64 E10       30.15S
ANTON 6SSW       N/A     63  55  74 E5        30.18F
BROWNFIELD 2S    N/A     66  56  70 E6        30.17F
DENVR CTY 7WNW   N/A     67  55  64 E8        30.18S
GAIL 2ESE        N/A     68  60  74 E5        30.13F
LAMESA 2SE       N/A     68  60  74 E7        30.16S
LEVELLAND 4S     N/A     66  57  73 E6        30.19S
LUBBOCK 3WNW     N/A     67  57  71 SE6       30.17F
MORTON 1ENE      N/A     65  54  69 E5        30.20S
ODONNELL 1N      N/A     66  57  72 E3        30.17S
PLAINS 3N        N/A     66  56  69 E7        30.19S
RALLS 1SE        N/A     62  57  83 SE5       30.17F
REESE CENTER     N/A     66  57  72 SE7       30.17F
SEAGRAVES 1SW    N/A     69  58  69 E7        30.17S
SEMINOLE 2NNE    N/A     69  57  66 E9        30.16S
SLATON 2NE       N/A     64  57  79 SE3       30.17F
SNYDER 3E        N/A     66  61  85 NE6       30.12F
SUNDOWN 8SW      N/A     65  57  75 E5        30.19S
TAHOKA 3NNE      N/A     64  57  78 E3        30.16F
WOLFFORTH 6SSW   N/A     67  57  72 E7        30.18F
$$

TXZ031-032-036>038-042>044-010900-
TEXAS TECH WEST TEXAS MESONET/ROLLING PLAINS

CITY           SKY/WX    TMP DP  RH WIND       PRES   REMARKS
ASPERMONT 3NE    N/A     64  60  87 NW1       30.10F
FLUVANNA 3WNW    N/A     66  58  75 E2        30.14F
GRAHAM 5SSW      N/A     67  59  74 E5        30.15F
GUTHRIE 10WSW    N/A     65  60  83 N1        30.11F
HASKELL 1NW      N/A     64  59  82 N7        30.08F
JAYTON 1SSE      N/A     64  60  84 NW1       30.11F
KNOX CITY 3NW    N/A     66  59  78 NW3       30.10S
LK A HENRY 1NW   N/A     67  60  77 NE2       30.12F
NORTHFIELD 1S    N/A     65  62  87 SW2       30.12F
ODELL 4ENE       N/A     64  63  96 CALM      30.10F
PADUCAH 10SW     N/A     66  60  81 W2        30.12F
POST 1NE         N/A     66  58  74 NE2       30.14F
RRING SPRGS 3N   N/A     64  60  89 SW2       30.15F
SEYMOUR 3NW      N/A     66  62  85 N3        30.08F
SPUR 1W          N/A     64  58  81 NW1       30.12F
WEINERT 2NNE     N/A     64  61  89 N2        30.09F
WHITE RVR 6NE    N/A     66  60  79 NE1       30.14F
$$

TXZ052-054-060>062-072-078-127-140-154-169-010900-
TEXAS TECH WEST TEXAS MESONET/PERMIAN BASIN/
CONCHO VALLEY/BIG COUNTRY/EDWARDS PLATEAU

CITY           SKY/WX    TMP DP  RH WIND       PRES   REMARKS
COYANOSA 2N      N/A     77  58  52 E9        30.10S
JUNCTION 1SSW    N/A     74  64  71 NE6       30.07S
MERTZON 3NNE     N/A     69  61  76 E1        30.11F
SAN ANGELO 7NW   N/A     71  61  70 NE5       30.09S
STRLNG CT 4WSW   N/A     69  61  76 NE2       30.12S
ST LAWRNCE 5SW   N/A     69  60  70 NE9       30.12S
SWEETWATR 11SW   N/A     64  62  93 NE7       30.13S
WALL 1E          N/A     66  58  76 SE5       30.09S
$$

TXZ055-058-074-075-080-082-010900-
TEXAS TECH WEST TEXAS MESONET/FAR WEST/SOUTHWEST MOUNTAINS/TRANS PECOS

CITY           SKY/WX    TMP DP  RH WIND       PRES   REMARKS
PRSMN GAP BBNP   N/A     80  62  54 NE13      30.06S
GUADLPE MTN NP   N/A     65  57  76 NE6       30.27S
$$